Weather reports worldwide

Advertisment
London/Heathrow Intl, United Kingdom (3772): temperature & dewpoint: 20.05.2019 01:00:00 - 26.05.2019 01:00:00 (BST)London/Heathrow Intl, United Kingdom (3772): wind speed: 20.05.2019 01:00:00 - 26.05.2019 01:00:00 (BST)London/Heathrow Intl, United Kingdom (3772): wind direction: 20.05.2019 01:00:00 - 26.05.2019 01:00:00 (BST)London/Heathrow Intl, United Kingdom (3772): reduced air pressure: 20.05.2019 01:00:00 - 26.05.2019 01:00:00 (BST)London/Heathrow Intl, United Kingdom (3772): visibility: 20.05.2019 01:00:00 - 26.05.2019 01:00:00 (BST)London/Heathrow Intl, United Kingdom (3772): sunshine duration: 20.05.2019 01:00:00 - 26.05.2019 01:00:00 (BST)London/Heathrow Intl, United Kingdom (3772): precipitation: 20.05.2019 01:00:00 - 26.05.2019 01:00:00 (BST)
Date & Time tt [°C] td [°C] ff [km/h] ff [kn] dd ppp [hPa] vv [km] sd [min] rr [mm]
26.05.2019 01:00:00 17,0 11,0 15 8 W - 10 - -
26.05.2019 00:00:00 18,0 10,9 15 8 W 1017,2 10 0 0,0
25.05.2019 23:00:00 18,6 10,8 13 7 W 1017,3 10 0 0,0
25.05.2019 22:00:00 19,4 11,0 13 7 W 1017,4 10 0 0,0
25.05.2019 21:00:00 19,6 10,7 13 7 W 1017,2 10 0 0,0
25.05.2019 20:00:00 21,1 10,4 18 10 W 1017,0 10 0 0,0
25.05.2019 19:00:00 21,7 8,3 16 9 W 1017,0 10 0 0,0
25.05.2019 18:00:00 22,2 8,4 11 6 NW 1017,0 10 18 0,0
25.05.2019 17:00:00 23,3 7,7 15 8 WNW 1017,2 10 24 0,0
25.05.2019 16:00:00 22,4 8,0 13 7 WNW 1017,5 10 24 0,0
25.05.2019 15:00:00 22,1 8,3 18 10 W 1017,7 75 42 0,0
25.05.2019 14:00:00 22,8 10,4 15 8 WNW 1018,1 10 54 0,0
25.05.2019 13:00:00 20,5 9,3 13 7 W 1018,4 10 24 0,0
25.05.2019 12:00:00 19,6 9,9 16 9 W 1018,8 10 24 0,0
25.05.2019 11:00:00 19,0 10,5 16 9 W 1019,2 10 36 0,0
25.05.2019 10:00:00 17,1 10,8 13 7 WNW 1019,5 10 18 0,0
25.05.2019 09:00:00 16,1 10,2 11 6 NW 1019,6 10 0 0,0
25.05.2019 08:00:00 15,5 10,6 8 4 NW 1019,3 10 6 0,0
25.05.2019 07:00:00 14,6 10,1 8 4 WNW 1019,0 10 0 0,0
25.05.2019 06:00:00 14,1 9,8 8 4 WNW 1018,8 10 0 0,0
25.05.2019 05:00:00 14,5 9,9 8 4 WNW 1018,7 10 0 0,0
25.05.2019 04:00:00 14,8 9,8 9 5 NW 1018,6 10 0 0,0
25.05.2019 03:00:00 15,2 10,1 5 3 WNW 1018,7 10 0 0,0
25.05.2019 02:00:00 15,7 10,4 5 3 - 1018,6 10 0 0,0
25.05.2019 01:00:00 15,9 10,8 5 3 NW 1018,6 10 - 0,0
25.05.2019 00:00:00 16,1 10,8 5 3 NW 1018,4 45 0 0,0
24.05.2019 23:00:00 16,2 10,5 5 3 NW 1018,4 10 0 0,0
24.05.2019 22:00:00 17,5 10,5 11 6 WNW 1018,0 10 0 0,0
24.05.2019 21:00:00 18,5 10,4 11 6 NW 1017,5 10 0 0,0
24.05.2019 20:00:00 19,4 10,6 13 7 W 1017,0 10 12 0,0
24.05.2019 19:00:00 19,2 9,7 11 6 WNW 1017,0 55 0 0,0
24.05.2019 18:00:00 19,3 9,8 15 8 WNW 1017,1 10 0 0,0
24.05.2019 17:00:00 19,9 9,5 16 9 NW 1017,3 10 0 0,0
24.05.2019 16:00:00 21,1 8,3 11 6 NW 1017,1 10 0 0,0
24.05.2019 15:00:00 20,8 8,3 16 9 WNW 1017,3 10 0 0,0
24.05.2019 14:00:00 21,1 7,4 15 8 NW 1017,2 10 - 0,0
24.05.2019 13:00:00 20,4 8,2 11 6 NW 1017,5 10 - 0,0
24.05.2019 12:00:00 19,8 7,4 13 7 NW 1017,6 65 - 0,0
24.05.2019 11:00:00 19,6 8,6 9 5 WNW 1017,8 10 - 0,0
24.05.2019 10:00:00 18,0 8,6 8 4 NW 1017,9 10 - 0,0
24.05.2019 09:00:00 16,6 8,7 9 5 NW 1017,6 10 - 0,0
24.05.2019 08:00:00 14,5 8,8 8 4 N 1017,4 10 - 0,0
24.05.2019 07:00:00 12,8 8,5 5 3 - 1017,4 26 - 0,0
24.05.2019 06:00:00 11,3 7,8 5 3 WNW 1017,0 10 - 0,0
24.05.2019 05:00:00 11,0 7,1 8 4 NW 1016,6 10 - 0,0
24.05.2019 04:00:00 11,9 7,3 5 3 WNW 1016,3 45 - 0,0
24.05.2019 03:00:00 11,9 7,5 5 3 WNW 1015,9 10 - 0,0
24.05.2019 02:00:00 12,7 8,0 5 3 WNW 1015,6 10 - 0,0
24.05.2019 01:00:00 13,0 7,9 13 7 W 1015,5 10 - 0,0
24.05.2019 00:00:00 14,6 7,8 28 15 SW 1015,2 40 0 0,0
23.05.2019 23:00:00 15,3 5,5 9 5 SW 1015,4 10 - 0,0
23.05.2019 22:00:00 17,1 4,5 28 15 SW 1015,3 65 0 0,0
23.05.2019 21:00:00 18,8 3,8 16 9 SW 1014,9 10 18 0,0
23.05.2019 20:00:00 20,2 2,6 18 10 SW 1014,4 75 54 0,0
23.05.2019 19:00:00 21,6 4,2 18 10 SW 1014,3 75 - 0,0
23.05.2019 18:00:00 22,6 4,4 21 11 SW 1014,2 10 54 0,0
23.05.2019 17:00:00 23,4 5,9 18 10 SW 1014,3 10 54 0,0
23.05.2019 16:00:00 24,7 4,4 21 11 SW 1014,5 10 42 0,0
23.05.2019 15:00:00 22,8 7,0 15 8 WSW 1014,8 10 - 0,0
23.05.2019 14:00:00 22,5 7,4 13 7 SSW 1015,5 10 - 0,0
23.05.2019 13:00:00 22,4 6,7 13 7 SSW 1015,9 10 - 0,0
23.05.2019 12:00:00 22,2 6,5 9 5 - 1016,5 10 - 0,0
23.05.2019 11:00:00 19,5 7,1 9 5 - 1017,0 10 - 0,0
23.05.2019 10:00:00 18,1 7,6 9 5 SSW 1017,5 10 - 0,0
23.05.2019 09:00:00 15,7 7,6 5 3 - 1017,6 10 - 0,0
23.05.2019 08:00:00 13,6 7,1 9 5 W 1017,9 10 - 0,0
23.05.2019 07:00:00 11,3 6,5 11 6 SW 1017,9 10 - 0,0
23.05.2019 06:00:00 10,2 6,4 8 4 SSW 1017,7 10 - 0,0
23.05.2019 05:00:00 9,3 5,4 5 3 SSW 1017,7 10 0 0,0
23.05.2019 04:00:00 9,4 5,3 5 3 SW 1017,9 10 - 0,0
23.05.2019 03:00:00 10,5 5,3 8 4 SSW 1018,2 10 0 0,0
23.05.2019 02:00:00 11,3 5,4 8 4 SSW 1018,3 10 0 0,0
23.05.2019 01:00:00 11,7 4,4 11 6 SW 1018,4 10 - 0,0
23.05.2019 00:00:00 13,0 4,2 9 5 SSW 1018,6 65 0 0,0
22.05.2019 23:00:00 14,5 3,7 13 7 SW 1018,6 10 0 0,0
22.05.2019 22:00:00 15,7 4,5 13 7 SW 1018,6 10 - 0,0
22.05.2019 21:00:00 17,4 5,0 15 8 SW 1018,2 10 - 0,0
22.05.2019 20:00:00 18,5 6,0 18 10 SW 1018,0 10 42 0,0
22.05.2019 19:00:00 20,1 6,8 18 10 SW 1018,1 10 - 0,0
22.05.2019 18:00:00 19,7 6,0 16 9 SW 1018,4 60 42 0,0
22.05.2019 17:00:00 20,3 5,3 18 10 W 1018,7 10 36 0,0
22.05.2019 16:00:00 20,8 4,3 15 8 WSW 1019,0 10 54 0,0
22.05.2019 15:00:00 20,8 5,2 15 8 W 1019,2 10 - 0,0
22.05.2019 14:00:00 20,1 6,2 9 5 WSW 1019,7 10 6 0,0
22.05.2019 13:00:00 19,6 4,6 16 9 WSW 1020,0 10 54 0,0
22.05.2019 12:00:00 19,2 4,4 9 5 SSW 1020,4 10 54 0,0
22.05.2019 11:00:00 18,2 5,0 4 2 - 1020,6 10 54 0,0
22.05.2019 10:00:00 15,9 3,6 4 2 - 1020,8 10 54 0,0
22.05.2019 09:00:00 15,4 5,0 5 3 - 1020,6 10 42 0,0
22.05.2019 08:00:00 13,4 3,5 5 3 - 1020,7 10 48 0,0
22.05.2019 07:00:00 11,7 3,7 4 2 N 1020,5 40 0 0,0
22.05.2019 06:00:00 11,2 3,3 2 1 NNE 1020,3 60 0 0,0
22.05.2019 05:00:00 10,8 3,1 4 2 - 1020,3 10 0 0,0
22.05.2019 04:00:00 10,4 3,3 2 1 - 1020,5 65 0 0,0
22.05.2019 03:00:00 11,4 3,9 5 3 W 1020,5 10 0 0,0
22.05.2019 02:00:00 11,3 5,3 9 5 W 1020,2 10 0 0,0
22.05.2019 01:00:00 12,0 5,2 4 2 - 1019,9 10 - 0,0
22.05.2019 00:00:00 14,1 4,8 8 4 N 1020,0 50 0 0,0
21.05.2019 23:00:00 14,9 5,9 5 3 N 1019,8 10 0 0,0
21.05.2019 22:00:00 16,3 6,0 8 4 N 1019,6 10 0 0,0
21.05.2019 21:00:00 16,9 5,9 8 4 NW 1019,2 40 18 0,0
21.05.2019 20:00:00 18,9 5,8 9 5 NNW 1018,8 10 60 0,0
21.05.2019 19:00:00 19,7 5,0 13 7 N 1018,6 10 54 0,0
21.05.2019 18:00:00 19,5 5,4 13 7 NW 1018,5 10 18 0,0
21.05.2019 17:00:00 20,0 5,5 13 7 NW 1018,5 10 36 0,0
21.05.2019 16:00:00 20,3 5,3 15 8 NW 1018,4 10 48 0,0
21.05.2019 15:00:00 20,3 5,7 13 7 NW 1018,5 70 48 0,0
21.05.2019 14:00:00 19,5 5,9 9 5 NW 1018,5 10 48 0,0
21.05.2019 13:00:00 19,2 6,1 15 8 NNW 1018,5 45 60 0,0
21.05.2019 12:00:00 18,3 6,0 13 7 NW 1018,5 10 60 0,0
21.05.2019 11:00:00 17,7 5,7 13 7 NW 1018,4 10 60 0,0
21.05.2019 10:00:00 16,2 6,9 11 6 NW 1018,5 10 60 0,0
21.05.2019 09:00:00 14,5 7,0 11 6 NW 1018,6 10 60 0,0
21.05.2019 08:00:00 13,1 7,3 4 2 - 1018,3 35 60 0,0
21.05.2019 07:00:00 11,2 7,0 5 3 - 1017,6 30 36 0,0
21.05.2019 06:00:00 9,9 6,6 5 3 WNW 1017,2 10 0 0,0
21.05.2019 05:00:00 10,0 6,6 8 4 WNW 1016,9 10 0 0,0
21.05.2019 04:00:00 10,3 6,6 5 3 - 1016,5 10 0 0,0
21.05.2019 03:00:00 11,4 7,1 8 4 N 1016,1 10 0 0,0
21.05.2019 02:00:00 11,3 7,2 8 4 NW 1015,9 10 0 0,0
21.05.2019 01:00:00 12,6 7,6 5 3 - 1015,8 10 - 0,0
21.05.2019 00:00:00 13,0 7,9 5 3 WNW 1015,6 10 0 0,0
20.05.2019 23:00:00 14,2 7,7 4 2 NW 1015,3 10 0 0,0
20.05.2019 22:00:00 15,2 7,8 8 4 NW 1014,8 10 0 0,0
20.05.2019 21:00:00 16,7 7,7 5 3 NW 1014,2 10 6 0,0
20.05.2019 20:00:00 18,3 7,3 5 3 - 1013,8 10 0 0,0
20.05.2019 19:00:00 18,1 8,2 13 7 NW 1013,5 10 0 0,0
20.05.2019 18:00:00 19,2 7,5 8 4 NNW 1013,1 10 6 0,0
20.05.2019 17:00:00 19,9 7,8 9 5 N 1013,0 10 12 0,0
20.05.2019 16:00:00 19,5 7,9 9 5 N 1012,9 10 - 0,0
20.05.2019 15:00:00 18,0 9,0 11 6 NW - 10 - -
20.05.2019 14:00:00 18,4 8,8 11 6 NNW 1012,9 10 6 0,0
20.05.2019 13:00:00 17,8 8,3 11 6 NW 1012,8 35 24 0,0
20.05.2019 12:00:00 19,2 9,4 13 7 NNW 1012,6 50 36 0,0
20.05.2019 11:00:00 17,5 9,4 11 6 N 1012,5 10 54 0,0
20.05.2019 10:00:00 16,3 10,1 9 5 NW 1012,6 10 36 0,0
20.05.2019 09:00:00 14,6 9,7 9 5 N 1012,4 10 0 0,0
20.05.2019 08:00:00 13,6 10,2 8 4 N 1012,0 10 0 0,0
20.05.2019 07:00:00 12,7 10,1 9 5 NW 1011,6 10 0 0,0
20.05.2019 06:00:00 12,5 10,1 8 4 NNW 1011,3 8 0 0,0
20.05.2019 05:00:00 12,5 10,3 4 2 - 1011,1 10 0 0,0
20.05.2019 04:00:00 12,6 9,7 5 3 NW 1011,0 10 0 0,0
20.05.2019 03:00:00 12,8 10,3 5 3 - 1010,9 10 0 0,0
20.05.2019 02:00:00 13,3 10,2 8 4 N 1011,1 10 0 0,0
20.05.2019 01:00:00 13,7 10,2 5 3 - 1011,1 10 - 0,0

tt = temperature
td = dewpoint
ff = wind speed
dd = wind direction
ppp = reduced air pressure
vv = visibility
sd = sunshine duration
rr = precipitation

Next stations